Location: Cahas Mountain Overlook
(37.0833°N, 80.1000°W)
Time: 06:55:57
(UTC-04:00)

Tiros 1 - Pass Details

Date: 08 February 2026
Orbit: 618 x 650 km, 48.4° (Epoch: 14 March)

Event Time Altitude Azimuth Distance (km) Brightness Sun altitude
Rises 14:45:39 0° 288° (WNW) 2,883 10.7 29.6°
Reaches altitude 10° 14:48:29 10° 306° (NW) 1,977 9.8 29.3°
Maximum altitude 14:51:51 20° 354° (N) 1,434 8.7 28.9°
Drops below altitude 10° 14:55:13 10° 42° (NE) 1,980 9.2 28.5°
Sets 14:58:04 0° 59° (ENE) 2,889 10.0 28.1°
